Flag for U.S.A. Weather past 2 weeks in Pomona, California, U.S.A.

Now
59 °F

Clear.


Feels Like: 59 °F
Forecast: 60 / 91 °F
Wind: No wind

Location: Chino Airport

Current Time: Sep 23, 2014 at 7:23:57 AM

Latest Report: Sep 23, 2014 at 6:53 AM


Visibility: 10 mi

Pressure: 29.96 "Hg

Humidity: 96%

Dew point: 58 °F

Location of PomonaLocation

Historic Weather in Pomona — Graph

°F

Pomona temperature yesterday

Maximum temperature yesterday: 90 °F (at 1:53 PM)
Minimum temperature yesterday: 58 °F (at 5:53 AM)
Average temperature yesterday: 73 °F

Past Weeks' High & Low Weather Summary

 TemperatureHumidityPressure
High108 °F (Sep 14, 1:53 PM)96% (Sep 23, 5:53 AM)30.01 "Hg (Sep 23, 5:53 AM)
Low58 °F (Sep 22, 5:53 AM)16% (Sep 10, 12:53 PM)29.66 "Hg (Sep 14, 3:53 PM)
Average79 °F54%29.83 "Hg
* Reported Sep 8 5:53 AM — Sep 23 5:53 AM, Pomona, Weather by CustomWeather, © 2014

Note: Actual official high and low records may vary slightly from our data, if they occured in-between our weather recording intervals... More about our weather records

Advertising

Pomona weather history for previous 24 hours

 ConditionsComfort  
Time TempWeatherWind HumidityBarometerVisibility
5:53 AM
Sep 23
59 °FFog.No wind96%29.95 "Hg4 mi
4:53 AM60 °FFog.No wind93%29.94 "Hg4 mi
3:53 AM60 °FFog.No wind93%29.95 "Hg5 mi
2:53 AM62 °FFog.No wind90%29.95 "Hg6 mi
1:53 AM65 °FClear.No wind85%29.96 "Hg7 mi
12:53 AM66 °FClear.No wind81%29.95 "Hg9 mi
11:53 PM
Sep 22
68 °FClear.No wind76%29.95 "Hg9 mi
10:53 PM69 °FClear.No wind73%29.94 "Hg10 mi
9:53 PM69 °FClear.No wind76%29.94 "Hg10 mi
8:53 PM70 °FClear.6 mph71%29.93 "Hg10 mi
7:53 PM74 °FClear.7 mph64%29.92 "Hg10 mi
6:53 PM78 °FSunny.8 mph58%29.90 "Hg10 mi
5:53 PM84 °FSunny.13 mph45%29.89 "Hg10 mi
4:53 PM87 °FSunny.12 mph39%29.89 "Hg10 mi
3:53 PM88 °FSunny.14 mph38%29.90 "Hg10 mi
2:53 PM90 °FSunny.13 mph33%29.91 "Hg10 mi
1:53 PM90 °FSunny.12 mph33%29.92 "Hg10 mi
12:53 PM88 °FSunny.9 mph35%29.94 "Hg10 mi
11:53 AM85 °FSunny.8 mph43%29.96 "Hg10 mi
10:53 AM79 °FSunny.5 mph50%29.98 "Hg7 mi
9:53 AM74 °FSunny.No wind62%29.99 "Hg6 mi
8:53 AM68 °FSunny.No wind73%29.99 "Hg6 mi
7:53 AM62 °FSunny.No wind90%29.98 "Hg6 mi
Weather by CustomWeather, © 2014

See weather overviewHow to use our weather pages